When you browse on this site, cookies collect data to enhance your experience and personalize the content and advertising you see.
Visit our Privacy Policy to learn more. By continuing to use the site, you agree to this use of cookies and data.
  • In United Kingdom
  • List of Countries
  • For 7 days
  • Water Temperature
  • Weather Map
  • Weather Widgets
  • user-avatar
    Login

    Hourly Weather Chelmsford

    Today, 21 November, Thursday

    Time Temperature Precipitation Wind Pressure Humidity
    00:00 +2°C° 0 mm 5 mps 753 mmHg 83%
    01:00 +2°C° 0 mm 5 mps 753 mmHg 85%
    02:00 +1°C° 0 mm 5 mps 753 mmHg 86%
    03:00 +1°C° 0 mm 5 mps 752 mmHg 88%
    04:00 +2°C° 0 mm 5 mps 752 mmHg 88%
    05:00 +2°C° 0 mm 5 mps 752 mmHg 88%
    06:00 +2°C° 0 mm 5 mps 752 mmHg 88%
    07:00 +2°C° 0 mm 5 mps 752 mmHg 88%
    08:00 +3°C° 0 mm 5 mps 751 mmHg 87%
    09:00 +3°C° 0 mm 5 mps 751 mmHg 87%
    10:00 +3°C° 0 mm 6 mps 751 mmHg 86%
    11:00 +4°C° 0 mm 6 mps 750 mmHg 85%
    12:00 +4°C° 0 mm 6 mps 750 mmHg 84%
    13:00 +5°C° 0 mm 5 mps 750 mmHg 85%
    14:00 +5°C° 0 mm 5 mps 749 mmHg 85%
    15:00 +5°C° 0 mm 5 mps 748 mmHg 86%
    16:00 +5°C° 0 mm 5 mps 748 mmHg 86%
    17:00 +5°C° 0 mm 4 mps 748 mmHg 86%
    18:00 +5°C° 0 mm 4 mps 748 mmHg 87%
    19:00 +6°C° 0 mm 4 mps 747 mmHg 87%
    20:00 +6°C° 0 mm 5 mps 747 mmHg 87%
    21:00 +6°C° 0 mm 5 mps 747 mmHg 87%
    22:00 +7°C° 0.2 mm 5 mps 747 mmHg 89%
    23:00 +7°C° 0.2 mm 5 mps 746 mmHg 90%

    Tomorrow, 22 November, Friday

    Time Temperature Precipitation Wind Pressure Humidity
    00:00 +7°C° 0.2 mm 5 mps 746 mmHg 91%
    01:00 +7°C° 0.2 mm 5 mps 746 mmHg 90%
    02:00 +7°C° 0.2 mm 5 mps 745 mmHg 89%
    03:00 +7°C° 0.2 mm 5 mps 745 mmHg 88%
    04:00 +7°C° 0.1 mm 5 mps 745 mmHg 88%
    05:00 +7°C° 0.1 mm 5 mps 745 mmHg 88%
    06:00 +7°C° 0.1 mm 5 mps 745 mmHg 87%
    07:00 +7°C° 0.1 mm 5 mps 745 mmHg 86%
    08:00 +7°C° 0.1 mm 6 mps 745 mmHg 85%
    09:00 +7°C° 0.1 mm 6 mps 745 mmHg 84%
    10:00 +8°C° 0 mm 6 mps 745 mmHg 82%
    11:00 +8°C° 0 mm 6 mps 745 mmHg 79%
    12:00 +9°C° 0 mm 6 mps 746 mmHg 77%
    13:00 +9°C° 0 mm 5 mps 745 mmHg 79%
    14:00 +8°C° 0 mm 5 mps 745 mmHg 81%
    15:00 +8°C° 0 mm 5 mps 745 mmHg 83%
    16:00 +8°C° 0 mm 5 mps 745 mmHg 84%
    17:00 +7°C° 0 mm 5 mps 745 mmHg 85%
    18:00 +7°C° 0 mm 5 mps 745 mmHg 86%
    19:00 +7°C° 0 mm 5 mps 745 mmHg 85%
    20:00 +7°C° 0 mm 6 mps 745 mmHg 84%
    21:00 +7°C° 0 mm 6 mps 745 mmHg 84%
    22:00 +7°C° 0 mm 6 mps 744 mmHg 84%
    23:00 +6°C° 0 mm 7 mps 744 mmHg 84%

    Day after tomorrow, 23 November, Saturday

    Time Temperature Precipitation Wind Pressure Humidity
    00:00 +8°C° 0 mm 7 mps 744 mmHg 84%
    01:00 +8°C° 0 mm 7 mps 743 mmHg 83%
    02:00 +7°C° 0 mm 8 mps 743 mmHg 83%
    03:00 +7°C° 0 mm 8 mps 743 mmHg 83%
    04:00 +7°C° 0.4 mm 8 mps 743 mmHg 82%
    05:00 +7°C° 0.4 mm 9 mps 743 mmHg 82%
    06:00 +7°C° 0.4 mm 9 mps 743 mmHg 82%
    07:00 +7°C° 0.6 mm 9 mps 743 mmHg 82%
    08:00 +8°C° 0.6 mm 9 mps 743 mmHg 82%
    09:00 +9°C° 0.6 mm 8 mps 743 mmHg 82%
    10:00 +9°C° 0.5 mm 8 mps 743 mmHg 84%
    11:00 +8°C° 0.5 mm 7 mps 743 mmHg 87%
    12:00 +8°C° 0.5 mm 7 mps 743 mmHg 89%
    13:00 +8°C° 0.5 mm 7 mps 743 mmHg 89%
    14:00 +9°C° 0.5 mm 7 mps 744 mmHg 89%
    15:00 +9°C° 0.5 mm 7 mps 744 mmHg 89%
    16:00 +9°C° 0.5 mm 7 mps 744 mmHg 88%
    17:00 +9°C° 0.5 mm 6 mps 745 mmHg 87%
    18:00 +8°C° 0.5 mm 5 mps 745 mmHg 87%
    19:00 +8°C° 0 mm 5 mps 746 mmHg 87%
    20:00 +8°C° 0 mm 5 mps 746 mmHg 88%
    21:00 +9°C° 0 mm 5 mps 747 mmHg 89%
    22:00 +8°C° 0 mm 4 mps 747 mmHg 91%
    23:00 +8°C° 0 mm 4 mps 748 mmHg 93%

    24 November, Sunday

    Time Temperature Precipitation Wind Pressure Humidity
    00:00 +9°C° 0 mm 3 mps 748 mmHg 94%
    01:00 +9°C° 0 mm 3 mps 748 mmHg 95%
    02:00 +9°C° 0 mm 3 mps 748 mmHg 95%
    03:00 +9°C° 0 mm 3 mps 749 mmHg 96%
    04:00 +9°C° 0 mm 3 mps 749 mmHg 96%
    05:00 +8°C° 0 mm 3 mps 749 mmHg 96%
    06:00 +8°C° 0 mm 3 mps 750 mmHg 96%
    07:00 +8°C° 0 mm 3 mps 750 mmHg 96%
    08:00 +9°C° 0 mm 3 mps 751 mmHg 97%
    09:00 +9°C° 0 mm 3 mps 751 mmHg 97%
    10:00 +10°C° 0 mm 4 mps 752 mmHg 93%
    11:00 +11°C° 0 mm 4 mps 752 mmHg 90%
    12:00 +12°C° 0 mm 4 mps 752 mmHg 86%
    13:00 +11°C° 0.1 mm 4 mps 752 mmHg 86%
    14:00 +11°C° 0.1 mm 4 mps 753 mmHg 85%
    15:00 +10°C° 0.1 mm 5 mps 753 mmHg 85%
    16:00 +9°C° 0 mm 5 mps 753 mmHg 86%
    17:00 +8°C° 0 mm 4 mps 753 mmHg 87%
    18:00 +8°C° 0 mm 4 mps 754 mmHg 88%
    19:00 +8°C° 0 mm 5 mps 754 mmHg 87%
    20:00 +8°C° 0 mm 5 mps 754 mmHg 87%
    21:00 +8°C° 0 mm 6 mps 754 mmHg 86%
    22:00 +8°C° 0.4 mm 6 mps 753 mmHg 86%
    23:00 +8°C° 0.4 mm 7 mps 753 mmHg 87%

    25 November, Monday

    Time Temperature Precipitation Wind Pressure Humidity
    00:00 +9°C° 0.4 mm 7 mps 753 mmHg 87%
    01:00 +9°C° 0.1 mm 7 mps 753 mmHg 86%
    02:00 +9°C° 0.1 mm 7 mps 752 mmHg 86%
    03:00 +9°C° 0.1 mm 7 mps 752 mmHg 85%
    04:00 +9°C° 0 mm 7 mps 751 mmHg 85%
    05:00 +9°C° 0 mm 8 mps 751 mmHg 85%
    06:00 +9°C° 0 mm 8 mps 751 mmHg 85%
    07:00 +9°C° 0.6 mm 8 mps 751 mmHg 86%
    08:00 +9°C° 0.6 mm 8 mps 751 mmHg 88%
    09:00 +8°C° 0.6 mm 9 mps 750 mmHg 89%
    10:00 +8°C° 0.3 mm 9 mps 750 mmHg 89%
    11:00 +10°C° 0.3 mm 9 mps 750 mmHg 90%
    12:00 +10°C° 0.3 mm 8 mps 750 mmHg 90%
    13:00 +10°C° 0.1 mm 7 mps 750 mmHg 89%
    14:00 +10°C° 0.1 mm 6 mps 750 mmHg 87%
    15:00 +12°C° 0.1 mm 5 mps 751 mmHg 86%
    16:00 +10°C° 0 mm 5 mps 751 mmHg 87%
    17:00 +10°C° 0 mm 4 mps 751 mmHg 87%
    18:00 +10°C° 0 mm 4 mps 751 mmHg 88%
    19:00 +8°C° 0 mm 4 mps 752 mmHg 87%
    20:00 +8°C° 0 mm 5 mps 752 mmHg 86%
    21:00 +8°C° 0 mm 5 mps 752 mmHg 85%
    22:00 +7°C° 0 mm 5 mps 753 mmHg 86%
    23:00 +7°C° 0 mm 5 mps 753 mmHg 86%

    26 November, Tuesday

    Time Temperature Precipitation Wind Pressure Humidity
    00:00 +7°C° 0 mm 5 mps 753 mmHg 87%
    01:00 +7°C° 0 mm 5 mps 753 mmHg 87%
    02:00 +7°C° 0 mm 5 mps 753 mmHg 86%
    03:00 +7°C° 0 mm 4 mps 753 mmHg 86%
    04:00 +6°C° 0 mm 4 mps 753 mmHg 87%
    05:00 +6°C° 0 mm 4 mps 753 mmHg 88%
    06:00 +7°C° 0 mm 3 mps 754 mmHg 88%
    07:00 +7°C° 0 mm 3 mps 754 mmHg 88%
    08:00 +7°C° 0 mm 3 mps 754 mmHg 87%
    09:00 +8°C° 0 mm 3 mps 754 mmHg 86%
    10:00 +8°C° 0 mm 3 mps 753 mmHg 85%
    11:00 +8°C° 0 mm 4 mps 753 mmHg 83%
    12:00 +10°C° 0 mm 4 mps 752 mmHg 82%
    13:00 +10°C° 0 mm 4 mps 752 mmHg 82%
    14:00 +10°C° 0 mm 4 mps 751 mmHg 82%
    15:00 +9°C° 0 mm 5 mps 751 mmHg 82%
    16:00 +9°C° 0 mm 5 mps 750 mmHg 84%
    17:00 +9°C° 0 mm 5 mps 750 mmHg 87%
    18:00 +8°C° 0 mm 5 mps 749 mmHg 90%
    19:00 +9°C° 0.1 mm 5 mps 748 mmHg 90%
    20:00 +9°C° 0.1 mm 6 mps 748 mmHg 90%
    21:00 +10°C° 0.1 mm 6 mps 747 mmHg 91%
    22:00 +10°C° 0.6 mm 7 mps 746 mmHg 90%
    23:00 +10°C° 0.6 mm 8 mps 745 mmHg 90%
    Show more